ARCTICSAT 1 (RS74S)

Last updated on Sat Dec 13 2025 00:03:10 GMT+0000 (Coordinated Universal Time)

1 61762U 24199AD 25346.29057631 .00069895 00000+0 11499-2 0 9992 2 61762 97.3225 217.1984 0005756 207.6600 152.4348 15.52107373108783
UTC large
Height (km)
Speed (km/s)
/
Latitude / Longitude
Inclination (degrees)
Orbital Period (minutes)
Azimuth
Elevation
Range (km)
Doppler Factor

Next 0 passes for location: London (51.5072 / 0.1276)

Sorry there are no passes over London.